sat.trackr.live / text

‹ back to catalog

STARLINK-34422

NORAD 64415 · 2025-129D

PAYLOAD ACTIVE UNKNOWN

§ Identity

Operator
Country
US
Launch date
2025-06-17
Launch site
AFWTR
Launch vehicle
Mass (kg)
RCS (m²)

Purposes: comms

External: N2YO · Heavens-Above · Gunter

§ Orbital elements

Epoch: 2026-09-20T12:02:44.858112Z

Period
94.14 min
Inclination
70.0013°
Eccentricity
0.0003394
Mean motion
15.29582852 rev/d
Perigee alt
474.7 km
Apogee alt
479.4 km
Semi-major
6,855.2 km
B*
2.4896e-4
RAAN
301.0613°
Arg perigee
271.8547°
Mean anomaly
88.2239°
Rev number
7,046

§ Raw data

STARLINK-344221 64415U 25129D   26263.50190808  .00007036  00000+0  24896-3 0  99962 64415  70.0013 301.0613 0003394 271.8547  88.2239 15.29582852 70466

JSON: /api/v1/satellites/64415 · /tle

For live sub-satellite position, see the globe view (requires WebGL).

§ Visibility from observer

Set your observer location to see the next 7 days of passes ≥ 10°. The values pass through the URL so the page stays shareable.

No JS? Fill the form by hand. The geolocation button needs JavaScript.